,,Stat5,,Stat1,,Stat2,,Stat3,,Stat4,,Wind1,,Wind1,
time,status,PA1M_AVG,status,PR1M_SUM,status,RH1M_AVG,status,SR1M_AVG,status,TA1M_AVG,status,W1dAve1m,status,W1sAve1m,
2002-12-24, 00:00:00,VALID,916.923,VALID,0,VALID,94.746,VALID,-0.0509425,VALID,20.3192,VALID,148,VALID,0.54603,
2002-12-24, 00:01:00,VALID,916.926,VALID,0,VALID,94.732,VALID,-0.0509425,VALID,20.3254,VALID,146,VALID,0.871194,
2002-12-24, 00:02:00,VALID,916.908,VALID,0,VALID,94.6582,VALID,-0.101885,VALID,20.3057,VALID,149,VALID,1.2678,
2002-12-24, 00:03:00,VALID,916.899,VALID,0,VALID,94.6087,VALID,-0.0509425,VALID,20.299,VALID,147,VALID,0.88239,
2002-12-24, 00:04:00,VALID,916.873,VALID,0,VALID,94.2246,VALID,-0.0509425,VALID,20.2928,VALID,136,VALID,1.73651,
2002-12-24, 00:05:00,VALID,916.866,VALID,0,VALID,93.9627,VALID,-0.0339617,VALID,20.3119,VALID,144,VALID,1.19206,
2002-12-24, 00:06:00,VALID,916.855,VALID,0,VALID,93.7554,VALID,-0.0509425,VALID,20.3483,VALID,121,VALID,1.72183,
2002-12-24, 00:07:00,VALID,916.851,VALID,0,VALID,93.6015,VALID,0.0339617,VALID,20.3631,VALID,148,VALID,1.15723,
2002-12-24, 00:08:00,VALID,916.84,VALID,0,VALID,93.5672,VALID,0.0509425,VALID,20.382,VALID,157,VALID,1.11816,
2002-12-24, 00:09:00,VALID,916.823,VALID,0,VALID,93.3892,VALID,0.0849042,VALID,20.3914,VALID,161,VALID,1.50651,
2002-12-24, 00:10:00,VALID,916.82,VALID,0,VALID,93.1438,VALID,0.0849042,VALID,20.3942,VALID,170,VALID,1.50477,
2002-12-24, 00:11:00,VALID,916.804,VALID,0,VALID,93.2188,VALID,0.101885,VALID,20.4205,VALID,158,VALID,1.51149,
2002-12-24, 00:12:00,VALID,916.806,VALID,0,VALID,93.3561,VALID,0.0679233,VALID,20.4103,VALID,161,VALID,1.03527,
2002-12-24, 00:13:00,VALID,916.803,VALID,0,VALID,93.6448,VALID,0.0339617,VALID,20.4079,VALID,135,VALID,0.906651,
2002-12-24, 00:14:00,VALID,916.798,VALID,0,VALID,93.7719,VALID,0.0679233,VALID,20.3989,VALID,158,VALID,0.974029,
2002-12-24, 00:15:00,VALID,916.787,VALID,0,VALID,93.6931,VALID,0.0169808,VALID,20.3634,VALID,165,VALID,1.21484,
2002-12-24, 00:16:00,VALID,916.786,VALID,0,VALID,93.7465,VALID,0.0509425,VALID,20.3532,VALID,172,VALID,0.796875,
2002-12-24, 00:17:00,VALID,916.774,VALID,0,VALID,93.7872,VALID,0.0509425,VALID,20.3368,VALID,171,VALID,1.0639,
2002-12-24, 00:18:00,VALID,916.766,VALID,0,VALID,93.8978,VALID,0.0509425,VALID,20.3306,VALID,166,VALID,0.969934,
2002-12-24, 00:19:00,VALID,916.747,VALID,0,VALID,93.8622,VALID,0.0509425,VALID,20.3147,VALID,169,VALID,1.19401,
2002-12-24, 00:20:00,VALID,916.748,VALID,0,VALID,93.7859,VALID,0.0679233,VALID,20.291,VALID,159,VALID,0.792352,
2002-12-24, 00:21:00,VALID,916.756,VALID,0,VALID,93.7033,VALID,0.0509425,VALID,20.288,VALID,171,VALID,0.941211,
2002-12-24, 00:22:00,VALID,916.736,VALID,0,VALID,93.5876,VALID,0.0339617,VALID,20.2915,VALID,174,VALID,1.025,
2002-12-24, 00:23:00,VALID,916.726,VALID,0,VALID,93.5024,VALID,0.0339617,VALID,20.2982,VALID,163,VALID,1.17166,
2002-12-24, 00:24:00,VALID,916.726,VALID,0,VALID,93.4909,VALID,0.0339617,VALID,20.3141,VALID,172,VALID,1.023,
2002-12-24, 00:25:00,VALID,916.735,VALID,0,VALID,93.4553,VALID,0.0339617,VALID,20.3271,VALID,155,VALID,0.749311,
2002-12-24, 00:26:00,VALID,916.731,VALID,0,VALID,93.4261,VALID,0.0679233,VALID,20.3241,VALID,145,VALID,0.576786,
2002-12-24, 00:27:00,VALID,916.737,VALID,0,VALID,93.5163,VALID,0.0169808,VALID,20.3271,VALID,150,VALID,0.775441,
2002-12-24, 00:28:00,VALID,916.744,VALID,0,VALID,93.4629,VALID,0.0849042,VALID,20.3276,VALID,111,VALID,1.09175,
2002-12-24, 00:29:00,VALID,916.738,VALID,0,VALID,93.4553,VALID,0.0679233,VALID,20.3174,VALID,121,VALID,0.836143,
2002-12-24, 00:30:00,VALID,916.748,VALID,0,VALID,93.5596,VALID,0.0679233,VALID,20.3169,VALID,106,VALID,0.545313,
2002-12-24, 00:31:00,VALID,916.726,VALID,0,VALID,93.5418,VALID,0.0339617,VALID,20.3047,VALID,110,VALID,0.328125,
2002-12-24, 00:32:00,VALID,916.715,VALID,0,VALID,93.6041,VALID,0.101885,VALID,20.2846,VALID,77,VALID,0.565104,
2002-12-24, 00:33:00,VALID,916.71,VALID,0,VALID,93.688,VALID,0.0509425,VALID,20.2786,VALID,90,VALID,0.813368,
2002-12-24, 00:34:00,VALID,916.72,VALID,0,VALID,93.6054,VALID,0.0679233,VALID,20.2719,VALID,102,VALID,1.08121,
2002-12-24, 00:35:00,VALID,916.726,VALID,0,VALID,93.5519,VALID,0.0339617,VALID,20.2751,VALID,117,VALID,0.94707,
2002-12-24, 00:36:00,VALID,916.731,VALID,0,VALID,93.557,VALID,0.0169808,VALID,20.2851,VALID,88,VALID,0.775781,
2002-12-24, 00:37:00,VALID,916.736,VALID,0,VALID,93.4744,VALID,0,VALID,20.2955,VALID,92,VALID,0.636719,
2002-12-24, 00:38:00,VALID,916.731,VALID,0,VALID,93.4388,VALID,0,VALID,20.3117,VALID,106,VALID,0.582465,
2002-12-24, 00:39:00,VALID,916.727,VALID,0,VALID,93.215,VALID,0,VALID,20.3015,VALID,130,VALID,0.521369,
2002-12-24, 00:40:00,VALID,916.725,VALID,0,VALID,93.2061,VALID,-0.0169808,VALID,20.3246,VALID,140,VALID,0.108259,
2002-12-24, 00:41:00,VALID,916.706,VALID,0,VALID,93.0904,VALID,0,VALID,20.3335,VALID,107,VALID,0.30629,
2002-12-24, 00:42:00,VALID,916.701,VALID,0,VALID,92.9238,VALID,0.0169808,VALID,20.347,VALID,105,VALID,0.0185811,
2002-12-24, 00:43:00,VALID,916.69,VALID,0,VALID,93.1094,VALID,0,VALID,20.3726,VALID,22,VALID,0.0472862,
2002-12-24, 00:44:00,VALID,916.676,VALID,0,VALID,93.4591,VALID,0.0339617,VALID,20.3763,VALID,350,VALID,0.168527,
2002-12-24, 00:45:00,VALID,916.656,VALID,0,VALID,93.9194,VALID,-0.0169808,VALID,20.3276,VALID,342,VALID,0.00300481,
2002-12-24, 00:46:00,VALID,916.663,VALID,0,VALID,94.3289,VALID,0,VALID,20.292,VALID,342,VALID,0,
2002-12-24, 00:47:00,VALID,916.666,VALID,0,VALID,94.7155,VALID,0,VALID,20.2662,VALID,342,VALID,0.00108507,
2002-12-24, 00:48:00,VALID,916.66,VALID,0,VALID,94.9914,VALID,0,VALID,20.2239,VALID,342,VALID,0,
2002-12-24, 00:49:00,VALID,916.644,VALID,0,VALID,95.2979,VALID,0,VALID,20.2118,VALID,342,VALID,0,
2002-12-24, 00:50:00,VALID,916.624,VALID,0,VALID,95.4479,VALID,0,VALID,20.1757,VALID,342,VALID,0,
2002-12-24, 00:51:00,VALID,916.606,VALID,0,VALID,95.5535,VALID,0,VALID,20.1601,VALID,342,VALID,0,
2002-12-24, 00:52:00,VALID,916.581,VALID,0,VALID,95.4619,VALID,-0.0169808,VALID,20.1146,VALID,342,VALID,0,
2002-12-24, 00:53:00,VALID,916.571,VALID,0,VALID,95.453,VALID,0,VALID,20.0952,VALID,342,VALID,0,
2002-12-24, 00:54:00,VALID,916.551,VALID,0,VALID,95.397,VALID,-0.0169808,VALID,20.0959,VALID,357,VALID,0.0149554,
2002-12-24, 00:55:00,VALID,916.542,VALID,0,VALID,95.4784,VALID,-0.0339617,VALID,20.076,VALID,274,VALID,0.420673,
2002-12-24, 00:56:00,VALID,916.54,VALID,0,VALID,95.4772,VALID,-0.0169808,VALID,20.0596,VALID,191,VALID,0.625422,
2002-12-24, 00:57:00,VALID,916.527,VALID,0,VALID,95.5636,VALID,0,VALID,20.0392,VALID,173,VALID,1.11369,
2002-12-24, 00:58:00,VALID,916.517,VALID,0,VALID,95.6081,VALID,-0.0169808,VALID,20.037,VALID,177,VALID,0.679911,
2002-12-24, 00:59:00,VALID,916.524,VALID,0,VALID,95.6565,VALID,0,VALID,20.0241,VALID,171,VALID,0.809095,
2002-12-24, 01:00:00,VALID,916.522,VALID,0,VALID,95.7315,VALID,0.0169808,VALID,20.0017,VALID,174,VALID,0.646544,
2002-12-24, 01:01:00,VALID,916.529,VALID,0,VALID,95.7951,VALID,0,VALID,19.995,VALID,169,VALID,0.473307,
2002-12-24, 01:02:00,VALID,916.532,VALID,0,VALID,95.8561,VALID,-0.0169808,VALID,19.9754,VALID,177,VALID,0.199836,
2002-12-24, 01:03:00,VALID,916.523,VALID,0,VALID,95.9146,VALID,0,VALID,19.9724,VALID,177,VALID,0,
2002-12-24, 01:04:00,VALID,916.52,VALID,0,VALID,95.9972,VALID,0.0169808,VALID,19.9689,VALID,178,VALID,0.0308594,
2002-12-24, 01:05:00,VALID,916.51,VALID,0,VALID,96.1384,VALID,-0.0169808,VALID,19.9691,VALID,178,VALID,0.000868056,
2002-12-24, 01:06:00,VALID,916.498,VALID,0,VALID,96.2401,VALID,-0.0339617,VALID,19.9525,VALID,178,VALID,0.000217014,
2002-12-24, 01:07:00,VALID,916.481,VALID,0,VALID,96.2834,VALID,0,VALID,19.953,VALID,178,VALID,0.0866268,
2002-12-24, 01:08:00,VALID,916.449,VALID,0,VALID,96.3253,VALID,0,VALID,19.953,VALID,178,VALID,0.009375,
2002-12-24, 01:09:00,VALID,916.433,VALID,0,VALID,96.3317,VALID,0,VALID,19.9328,VALID,178,VALID,0,
2002-12-24, 01:10:00,VALID,916.418,VALID,0,VALID,96.2655,VALID,0,VALID,19.9306,VALID,178,VALID,0.0532095,
2002-12-24, 01:11:00,VALID,916.398,VALID,0,VALID,96.3355,VALID,0,VALID,19.9112,VALID,178,VALID,0.0923109,
2002-12-24, 01:12:00,VALID,916.385,VALID,0,VALID,96.3953,VALID,0,VALID,19.9043,VALID,178,VALID,0.003125,
2002-12-24, 01:13:00,VALID,916.356,VALID,0,VALID,96.4423,VALID,0,VALID,19.8981,VALID,178,VALID,0.083734,
2002-12-24, 01:14:00,VALID,916.343,VALID,0,VALID,96.5199,VALID,0.0169808,VALID,19.8884,VALID,178,VALID,0.0281723,
2002-12-24, 01:15:00,VALID,916.332,VALID,0,VALID,96.6076,VALID,0,VALID,19.8787,VALID,178,VALID,0,
2002-12-24, 01:16:00,VALID,916.338,VALID,0,VALID,96.7144,VALID,0,VALID,19.8687,VALID,178,VALID,0.0629112,
2002-12-24, 01:17:00,VALID,916.327,VALID,0,VALID,96.8009,VALID,-0.0169808,VALID,19.8526,VALID,113,VALID,0.360742,
2002-12-24, 01:18:00,VALID,916.305,VALID,0,VALID,96.792,VALID,-0.0169808,VALID,19.8401,VALID,61,VALID,0.515234,
2002-12-24, 01:19:00,VALID,916.302,VALID,0,VALID,96.8721,VALID,-0.0169808,VALID,19.8111,VALID,54,VALID,0.61046,
2002-12-24, 01:20:00,VALID,916.299,VALID,0,VALID,96.9827,VALID,0,VALID,19.7887,VALID,53,VALID,0.433594,
2002-12-24, 01:21:00,VALID,916.293,VALID,0,VALID,97.0768,VALID,0,VALID,19.772,VALID,53,VALID,0.340763,
2002-12-24, 01:22:00,VALID,916.28,VALID,0,VALID,97.1798,VALID,0,VALID,19.7696,VALID,55,VALID,0.35,
2002-12-24, 01:23:00,VALID,916.266,VALID,0,VALID,97.2218,VALID,-0.0169808,VALID,19.7492,VALID,56,VALID,0.447716,
2002-12-24, 01:24:00,VALID,916.249,VALID,0,VALID,97.2981,VALID,0.0169808,VALID,19.7499,VALID,59,VALID,0.535262,
2002-12-24, 01:25:00,VALID,916.248,VALID,0,VALID,97.3184,VALID,0.0169808,VALID,19.74,VALID,59,VALID,0.703742,
2002-12-24, 01:26:00,VALID,916.237,VALID,0,VALID,97.3693,VALID,0,VALID,19.7335,VALID,61,VALID,0.787054,
2002-12-24, 01:27:00,VALID,916.206,VALID,0,VALID,97.4036,VALID,0,VALID,19.7174,VALID,61,VALID,0.602564,
2002-12-24, 01:28:00,VALID,916.2,VALID,0,VALID,97.4291,VALID,0,VALID,19.701,VALID,61,VALID,0.629972,
2002-12-24, 01:29:00,VALID,916.171,VALID,0,VALID,97.438,VALID,0,VALID,19.6918,VALID,61,VALID,0.568576,
2002-12-24, 01:30:00,VALID,916.145,VALID,0,VALID,97.4392,VALID,0,VALID,19.6853,VALID,61,VALID,0.589433,
2002-12-24, 01:31:00,VALID,916.128,VALID,0,VALID,97.4825,VALID,-0.0339617,VALID,19.6662,VALID,61,VALID,0.736523,
2002-12-24, 01:32:00,VALID,916.109,VALID,0,VALID,97.5003,VALID,-0.0169808,VALID,19.6662,VALID,61,VALID,1.04434,
2002-12-24, 01:33:00,VALID,916.078,VALID,0,VALID,97.5003,VALID,0,VALID,19.6304,VALID,66,VALID,1.09701,
2002-12-24, 01:34:00,VALID,916.06,VALID,0,VALID,97.5575,VALID,-0.0339617,VALID,19.6043,VALID,70,VALID,1.00217,
2002-12-24, 01:35:00,VALID,916.049,VALID,0,VALID,97.6351,VALID,-0.0509425,VALID,19.6184,VALID,70,VALID,0.778263,
2002-12-24, 01:36:00,VALID,916.022,VALID,0,VALID,97.6808,VALID,0,VALID,19.6048,VALID,72,VALID,0.743527,
2002-12-24, 01:37:00,VALID,916.012,VALID,0,VALID,97.7482,VALID,-0.0169808,VALID,19.6013,VALID,73,VALID,0.710737,
2002-12-24, 01:38:00,VALID,916.006,VALID,0,VALID,97.8156,VALID,-0.0169808,VALID,19.6078,VALID,73,VALID,0.71326,
2002-12-24, 01:39:00,VALID,915.994,VALID,0,VALID,97.7597,VALID,-0.0169808,VALID,19.6271,VALID,73,VALID,0.593339,
2002-12-24, 01:40:00,VALID,915.981,VALID,0,VALID,97.6796,VALID,0,VALID,19.6204,VALID,72,VALID,0.498437,
2002-12-24, 01:41:00,VALID,915.97,VALID,0,VALID,97.6211,VALID,0,VALID,19.6075,VALID,72,VALID,0.559495,
2002-12-24, 01:42:00,VALID,915.983,VALID,0,VALID,97.5969,VALID,0,VALID,19.5787,VALID,73,VALID,0.569366,
2002-12-24, 01:43:00,VALID,915.98,VALID,0,VALID,97.7368,VALID,-0.0339617,VALID,19.5692,VALID,80,VALID,0.684896,
2002-12-24, 01:44:00,VALID,915.985,VALID,0,VALID,97.7788,VALID,0,VALID,19.5491,VALID,81,VALID,0.428454,
2002-12-24, 01:45:00,VALID,915.992,VALID,0,VALID,97.8195,VALID,-0.0169808,VALID,19.5332,VALID,85,VALID,0.30625,
2002-12-24, 01:46:00,VALID,916.002,VALID,0,VALID,97.9225,VALID,0,VALID,19.5367,VALID,89,VALID,0.328711,
2002-12-24, 01:47:00,VALID,916.001,VALID,0,VALID,97.9962,VALID,0,VALID,19.53,VALID,89,VALID,0.138889,
2002-12-24, 01:48:00,VALID,916.015,VALID,0,VALID,98.0763,VALID,0,VALID,19.524,VALID,89,VALID,0,
2002-12-24, 01:49:00,VALID,916.012,VALID,0,VALID,98.1717,VALID,0,VALID,19.5141,VALID,89,VALID,0,
2002-12-24, 01:50:00,VALID,916.008,VALID,0,VALID,98.2098,VALID,0,VALID,19.5235,VALID,89,VALID,0,
2002-12-24, 01:51:00,VALID,916.009,VALID,0,VALID,98.2327,VALID,0,VALID,19.517,VALID,89,VALID,0,
2002-12-24, 01:52:00,VALID,915.979,VALID,0,VALID,98.2505,VALID,0.0169808,VALID,19.5302,VALID,89,VALID,0,
2002-12-24, 01:53:00,VALID,915.981,VALID,0,VALID,98.2874,VALID,0,VALID,19.5203,VALID,89,VALID,0.0102796,
2002-12-24, 01:54:00,VALID,915.976,VALID,0,VALID,98.3077,VALID,-0.0509425,VALID,19.5203,VALID,93,VALID,0.219866,
2002-12-24, 01:55:00,VALID,915.968,VALID,0,VALID,98.351,VALID,-0.0169808,VALID,19.5235,VALID,133,VALID,0.53766,
2002-12-24, 01:56:00,VALID,915.962,VALID,0,VALID,98.4057,VALID,-0.0169808,VALID,19.53,VALID,146,VALID,0.68892,
2002-12-24, 01:57:00,VALID,915.938,VALID,0,VALID,98.4527,VALID,-0.0509425,VALID,19.5469,VALID,148,VALID,0.73112,
2002-12-24, 01:58:00,VALID,915.917,VALID,0,VALID,98.4934,VALID,0,VALID,19.5397,VALID,141,VALID,0.563939,
2002-12-24, 01:59:00,VALID,915.901,VALID,0,VALID,98.4959,VALID,0,VALID,19.5364,VALID,141,VALID,0.524805,
2002-12-24, 02:00:00,VALID,915.882,VALID,0,VALID,98.5061,VALID,-0.0169808,VALID,19.523,VALID,135,VALID,0.436523,
2002-12-24, 02:01:00,VALID,915.864,VALID,0,VALID,98.5405,VALID,0,VALID,19.5178,VALID,128,VALID,0.286458,
2002-12-24, 02:02:00,VALID,915.838,VALID,0,VALID,98.5761,VALID,0,VALID,19.5001,VALID,127,VALID,0.232422,
2002-12-24, 02:03:00,VALID,915.812,VALID,0,VALID,98.6091,VALID,-0.0169808,VALID,19.5076,VALID,127,VALID,0.105699,
2002-12-24, 02:04:00,VALID,915.807,VALID,0,VALID,98.6358,VALID,0,VALID,19.5046,VALID,150,VALID,0.291518,
2002-12-24, 02:05:00,VALID,915.804,VALID,0,VALID,98.6918,VALID,0,VALID,19.4842,VALID,157,VALID,0.493189,
2002-12-24, 02:06:00,VALID,915.775,VALID,0,VALID,98.7274,VALID,0.0169808,VALID,19.5208,VALID,151,VALID,0.511402,
2002-12-24, 02:07:00,VALID,915.755,VALID,0,VALID,98.7503,VALID,0,VALID,19.5108,VALID,151,VALID,0.408923,
2002-12-24, 02:08:00,VALID,915.758,VALID,0,VALID,98.7732,VALID,-0.0169808,VALID,19.523,VALID,152,VALID,0.525,
2002-12-24, 02:09:00,VALID,915.752,VALID,0,VALID,98.7604,VALID,0.0169808,VALID,19.53,VALID,143,VALID,0.44371,
2002-12-24, 02:10:00,VALID,915.754,VALID,0,VALID,98.7312,VALID,-0.0169808,VALID,19.5337,VALID,106,VALID,0.504498,
2002-12-24, 02:11:00,VALID,915.751,VALID,0,VALID,98.7554,VALID,0,VALID,19.527,VALID,125,VALID,0.72309,
2002-12-24, 02:12:00,VALID,915.754,VALID,0,VALID,98.7782,VALID,-0.0169808,VALID,19.5367,VALID,144,VALID,0.763363,
2002-12-24, 02:13:00,VALID,915.736,VALID,0,VALID,98.7681,VALID,0,VALID,19.5493,VALID,156,VALID,0.666797,
2002-12-24, 02:14:00,VALID,915.717,VALID,0,VALID,98.7528,VALID,0,VALID,19.569,VALID,163,VALID,0.277148,
2002-12-24, 02:15:00,VALID,915.692,VALID,0,VALID,98.7388,VALID,0,VALID,19.5784,VALID,153,VALID,0.259766,
2002-12-24, 02:16:00,VALID,915.658,VALID,0,VALID,98.7147,VALID,0,VALID,19.5978,VALID,151,VALID,0.236979,
2002-12-24, 02:17:00,VALID,915.65,VALID,0,VALID,98.6473,VALID,0,VALID,19.5846,VALID,148,VALID,0.132813,
2002-12-24, 02:18:00,VALID,915.641,VALID,0,VALID,98.6193,VALID,0,VALID,19.5981,VALID,148,VALID,0,
2002-12-24, 02:19:00,VALID,915.636,VALID,0,VALID,98.5913,VALID,-0.0169808,VALID,19.5916,VALID,148,VALID,0,
2002-12-24, 02:20:00,VALID,915.63,VALID,0,VALID,98.5875,VALID,0,VALID,19.5851,VALID,148,VALID,0,
2002-12-24, 02:21:00,VALID,915.632,VALID,0,VALID,98.5811,VALID,0,VALID,19.5986,VALID,148,VALID,0,
2002-12-24, 02:22:00,VALID,915.642,VALID,0,VALID,98.5684,VALID,0,VALID,19.5946,VALID,252,VALID,0.178348,
2002-12-24, 02:23:00,VALID,915.64,VALID,0,VALID,98.5595,VALID,0.0169808,VALID,19.6043,VALID,278,VALID,0.213542,
2002-12-24, 02:24:00,VALID,915.66,VALID,0,VALID,98.5443,VALID,0.0169808,VALID,19.607,VALID,310,VALID,0.402225,
2002-12-24, 02:25:00,VALID,915.651,VALID,0,VALID,98.4909,VALID,0.0339617,VALID,19.6107,VALID,322,VALID,0.249566,
2002-12-24, 02:26:00,VALID,915.657,VALID,0,VALID,98.4184,VALID,0,VALID,19.6078,VALID,359,VALID,0.589021,
2002-12-24, 02:27:00,VALID,915.642,VALID,0,VALID,98.3612,VALID,0,VALID,19.5884,VALID,10,VALID,0.539453,
2002-12-24, 02:28:00,VALID,915.652,VALID,0,VALID,98.2709,VALID,0,VALID,19.5489,VALID,10,VALID,0.573047,
2002-12-24, 02:29:00,VALID,915.652,VALID,0,VALID,98.2187,VALID,0.0169808,VALID,19.53,VALID,15,VALID,0.62283,
2002-12-24, 02:30:00,VALID,915.654,VALID,0,VALID,98.2289,VALID,0.0169808,VALID,19.5108,VALID,23,VALID,0.613932,
2002-12-24, 02:31:00,VALID,915.645,VALID,0,VALID,98.276,VALID,0,VALID,19.5009,VALID,24,VALID,0.498851,
2002-12-24, 02:32:00,VALID,915.645,VALID,0,VALID,98.3777,VALID,0.0169808,VALID,19.5203,VALID,25,VALID,0.354688,
2002-12-24, 02:33:00,VALID,915.655,VALID,0,VALID,98.3523,VALID,0,VALID,19.5558,VALID,25,VALID,0.122796,
2002-12-24, 02:34:00,VALID,915.656,VALID,0,VALID,98.2721,VALID,0,VALID,19.5792,VALID,25,VALID,0.247255,
2002-12-24, 02:35:00,VALID,915.66,VALID,0,VALID,98.192,VALID,0,VALID,19.5981,VALID,25,VALID,0.263158,
2002-12-24, 02:36:00,VALID,915.674,VALID,0,VALID,98.0623,VALID,0,VALID,19.5846,VALID,25,VALID,0.040625,
2002-12-24, 02:37:00,VALID,915.684,VALID,0,VALID,97.9148,VALID,0,VALID,19.5625,VALID,25,VALID,0.201322,
2002-12-24, 02:38:00,VALID,915.697,VALID,0,VALID,97.8678,VALID,0,VALID,19.5399,VALID,8,VALID,0.502604,
2002-12-24, 02:39:00,VALID,915.734,VALID,0,VALID,97.869,VALID,0,VALID,19.5307,VALID,360,VALID,0.765842,
2002-12-24, 02:40:00,VALID,915.742,VALID,0,VALID,97.9021,VALID,0,VALID,19.5145,VALID,347,VALID,0.657278,
2002-12-24, 02:41:00,VALID,915.761,VALID,0,VALID,97.9962,VALID,-0.0169808,VALID,19.5049,VALID,347,VALID,0.315039,
2002-12-24, 02:42:00,VALID,915.773,VALID,0,VALID,98.1335,VALID,0,VALID,19.4979,VALID,330,VALID,0.508203,
2002-12-24, 02:43:00,VALID,915.779,VALID,0,VALID,98.2658,VALID,-0.0169808,VALID,19.5307,VALID,331,VALID,0.717448,
2002-12-24, 02:44:00,VALID,915.789,VALID,0,VALID,98.3395,VALID,0,VALID,19.5307,VALID,335,VALID,0.383898,
2002-12-24, 02:45:00,VALID,915.815,VALID,0,VALID,98.4209,VALID,0,VALID,19.5404,VALID,323,VALID,0.326976,
2002-12-24, 02:46:00,VALID,915.845,VALID,0,VALID,98.5036,VALID,0.0169808,VALID,19.5563,VALID,318,VALID,0.213393,
2002-12-24, 02:47:00,VALID,915.862,VALID,0,VALID,98.543,VALID,0,VALID,19.5528,VALID,319,VALID,0.164063,
2002-12-24, 02:48:00,VALID,915.902,VALID,0,VALID,98.5608,VALID,0,VALID,19.5658,VALID,321,VALID,0.0998733,
2002-12-24, 02:49:00,VALID,915.924,VALID,0,VALID,98.5722,VALID,0,VALID,19.5628,VALID,321,VALID,0,
2002-12-24, 02:50:00,VALID,915.949,VALID,0,VALID,98.5951,VALID,0,VALID,19.5461,VALID,302,VALID,0.172545,
2002-12-24, 02:51:00,VALID,915.95,VALID,0,VALID,98.6587,VALID,-0.0169808,VALID,19.5595,VALID,251,VALID,0.199119,
2002-12-24, 02:52:00,VALID,915.955,VALID,0,VALID,98.7223,VALID,0,VALID,19.5628,VALID,239,VALID,0.527462,
2002-12-24, 02:53:00,VALID,915.968,VALID,0,VALID,98.763,VALID,0,VALID,19.5794,VALID,229,VALID,0.282939,
2002-12-24, 02:54:00,VALID,915.984,VALID,0,VALID,98.7999,VALID,0.0169808,VALID,19.5657,VALID,232,VALID,0.195313,
2002-12-24, 02:55:00,VALID,915.979,VALID,0,VALID,98.8355,VALID,0,VALID,19.5662,VALID,232,VALID,0.0046875,
2002-12-24, 02:56:00,VALID,915.999,VALID,0,VALID,98.8685,VALID,0,VALID,19.5593,VALID,232,VALID,0,
2002-12-24, 02:57:00,VALID,915.995,VALID,0,VALID,98.8952,VALID,0,VALID,19.5526,VALID,232,VALID,0,
2002-12-24, 02:58:00,VALID,916.003,VALID,0,VALID,98.9219,VALID,0,VALID,19.5595,VALID,232,VALID,0,
2002-12-24, 02:59:00,VALID,915.994,VALID,0,VALID,98.9359,VALID,0,VALID,19.5563,VALID,232,VALID,0,
2002-12-24, 03:00:00,VALID,915.99,VALID,0,VALID,98.9792,VALID,0,VALID,19.5625,VALID,232,VALID,0,
2002-12-24, 03:01:00,VALID,915.982,VALID,0,VALID,98.9982,VALID,-0.0169808,VALID,19.572,VALID,232,VALID,0.0376603,
2002-12-24, 03:02:00,VALID,915.981,VALID,0,VALID,99.0186,VALID,0,VALID,19.5625,VALID,232,VALID,0.165963,
2002-12-24, 03:03:00,VALID,915.975,VALID,0,VALID,99.0377,VALID,0,VALID,19.5593,VALID,232,VALID,0.0857319,
2002-12-24, 03:04:00,VALID,915.966,VALID,0,VALID,99.0694,VALID,-0.0169808,VALID,19.5558,VALID,232,VALID,0.00223214,
2002-12-24, 03:05:00,VALID,915.956,VALID,0,VALID,99.0618,VALID,-0.0339617,VALID,19.5628,VALID,232,VALID,0,
2002-12-24, 03:06:00,VALID,915.951,VALID,0,VALID,99.0961,VALID,0,VALID,19.5655,VALID,232,VALID,0,
2002-12-24, 03:07:00,VALID,915.93,VALID,0,VALID,99.1089,VALID,0.0169808,VALID,19.5593,VALID,232,VALID,0.0657552,
2002-12-24, 03:08:00,VALID,915.925,VALID,0,VALID,99.1228,VALID,0.0169808,VALID,19.5496,VALID,229,VALID,0.444079,
2002-12-24, 03:09:00,VALID,915.913,VALID,0,VALID,99.1419,VALID,0,VALID,19.5464,VALID,222,VALID,0.523047,
2002-12-24, 03:10:00,VALID,915.899,VALID,0,VALID,99.161,VALID,-0.0169808,VALID,19.5466,VALID,219,VALID,0.304883,
2002-12-24, 03:11:00,VALID,915.896,VALID,0,VALID,99.1877,VALID,-0.0169808,VALID,19.5528,VALID,219,VALID,0.139106,
2002-12-24, 03:12:00,VALID,915.875,VALID,0,VALID,99.1953,VALID,0,VALID,19.563,VALID,219,VALID,0.0190972,
2002-12-24, 03:13:00,VALID,915.873,VALID,0,VALID,99.2258,VALID,0,VALID,19.5595,VALID,219,VALID,0,
2002-12-24, 03:14:00,VALID,915.867,VALID,0,VALID,99.2297,VALID,0.0169808,VALID,19.566,VALID,219,VALID,0.108929,
2002-12-24, 03:15:00,VALID,915.864,VALID,0,VALID,99.2437,VALID,0,VALID,19.5628,VALID,219,VALID,0.0472756,
2002-12-24, 03:16:00,VALID,915.85,VALID,0,VALID,99.2335,VALID,0,VALID,19.5461,VALID,219,VALID,0.0572213,
2002-12-24, 03:17:00,VALID,915.824,VALID,0,VALID,99.2411,VALID,0.0169808,VALID,19.5493,VALID,219,VALID,0.00534539,
2002-12-24, 03:18:00,VALID,915.807,VALID,0,VALID,99.2525,VALID,0,VALID,19.5496,VALID,219,VALID,0.132813,
2002-12-24, 03:19:00,VALID,915.782,VALID,0,VALID,99.2602,VALID,0.0339617,VALID,19.5558,VALID,220,VALID,0.0334535,
2002-12-24, 03:20:00,VALID,915.761,VALID,0,VALID,99.2729,VALID,0.0169808,VALID,19.5364,VALID,262,VALID,0.242898,
2002-12-24, 03:21:00,VALID,915.744,VALID,0,VALID,99.2805,VALID,0.0169808,VALID,19.5359,VALID,263,VALID,0.13303,
2002-12-24, 03:22:00,VALID,915.724,VALID,0,VALID,99.2932,VALID,-0.0339617,VALID,19.5444,VALID,262,VALID,0.00123355,
2002-12-24, 03:23:00,VALID,915.711,VALID,0,VALID,99.2945,VALID,-0.0679233,VALID,19.5508,VALID,281,VALID,0.160742,
2002-12-24, 03:24:00,VALID,915.703,VALID,0,VALID,99.2894,VALID,-0.0849042,VALID,19.5188,VALID,322,VALID,0.155078,
2002-12-24, 03:25:00,VALID,915.697,VALID,0,VALID,99.2882,VALID,-0.0509425,VALID,19.5056,VALID,325,VALID,0.0269097,
2002-12-24, 03:26:00,VALID,915.659,VALID,0,VALID,99.3072,VALID,-0.0509425,VALID,19.5051,VALID,326,VALID,0.00607639,
2002-12-24, 03:27:00,VALID,915.649,VALID,0,VALID,99.3161,VALID,-0.0339617,VALID,19.5183,VALID,293,VALID,0.076057,
2002-12-24, 03:28:00,VALID,915.625,VALID,0,VALID,99.3327,VALID,-0.0679233,VALID,19.5145,VALID,250,VALID,0.296429,
2002-12-24, 03:29:00,VALID,915.607,VALID,0,VALID,99.3416,VALID,-0.0679233,VALID,19.5213,VALID,250,VALID,0.111378,
2002-12-24, 03:30:00,VALID,915.588,VALID,0,VALID,99.3581,VALID,-0.101885,VALID,19.525,VALID,250,VALID,0.0456081,
2002-12-24, 03:31:00,VALID,915.567,VALID,0,VALID,99.3606,VALID,-0.0849042,VALID,19.5481,VALID,250,VALID,0.164063,
2002-12-24, 03:32:00,VALID,915.559,VALID,0,VALID,99.3632,VALID,-0.0849042,VALID,19.5381,VALID,250,VALID,0.0325893,
2002-12-24, 03:33:00,VALID,915.557,VALID,0,VALID,99.3784,VALID,-0.0509425,VALID,19.5411,VALID,250,VALID,0.00200321,
2002-12-24, 03:34:00,VALID,915.552,VALID,0,VALID,99.3823,VALID,-0.0849042,VALID,19.5411,VALID,250,VALID,0,
2002-12-24, 03:35:00,VALID,915.565,VALID,0,VALID,99.4013,VALID,-0.0339617,VALID,19.5538,VALID,256,VALID,0.113281,
2002-12-24, 03:36:00,VALID,915.564,VALID,0,VALID,99.4039,VALID,-0.0679233,VALID,19.5705,VALID,51,VALID,0.374794,
2002-12-24, 03:37:00,VALID,915.554,VALID,0,VALID,99.4039,VALID,-0.0849042,VALID,19.5608,VALID,51,VALID,0.386523,